Weather in Sharagol

Russia / Republic of Buryatia     50°01′04″N   107°20′46″E
temp.,
°C
wind,
m/s
gust,
m/s
humid.,
%
clouds,
%
prec.,
mm/h
press.,
hPa
HPBL,
m
20 june, sun
sun2023:00+13wnw11530 0.0 100411
02:00+11se11603 0.0 100510
05:00+9se22705 0.0 100615
08:00+15se22605 0.0 1006207
11:00+21ese22464 0.0 1005529
14:00+24se11342 0.0 10031188
17:00+25e12372 0.0 1002862
20:00+21ese11542 0.0 100211
21 june, mon
mon2123:00+15e11625 0.0 100411
02:00+13ese22684 0.0 100511
05:00+11se22767 0.0 100616
08:00+16se23638 0.0 1006248
11:00+22se34525 0.0 1004669
14:00+26sw13403 0.0 10031368
17:00+27s12390 0.0 10011455
20:00+21se6106512 0.1 1002272
22 june, tue
tue2223:00+14se33915 0.9 100633
02:00+12se339252 0.9 100636
05:00+11se229171 0.0 100719
08:00+16ese2277100 0.0 1007223
11:00+22n11576 0.0 1006596
14:00+26nnw334649 0.0 1003991
17:00+27w224649 0.0 10021688
20:00+16n1192100 4.3 100720
23 june, wed
wed2323:00+14nnw1194100 0.7 100710
02:00+13ssw119696 0.7 100811
05:00+13sse119480 0.0 100810
08:00+17ssw118343 0.0 1009361
11:00+21sw236798 0.1 10081147
14:00+24ssw235571 0.2 10061327
17:00+25nnw02485 0.0 10051501
20:00+23nne11651 0.0 100411
24 june, thu
thu2423:00+18ne117862 0.0 100511
02:00+16e118380 0.0 100611
05:00+14ese3290100 0.0 100624
08:00+18ese227687 0.0 1005207
11:00+24se345575 0.0 1003545
14:00+29s15395 0.0 10011563
17:00+29w46391 0.0 9991698
20:00+17se4687100 1.1 1004183